| time (UTC) | temp F | wind direction | speed MPH | gust MPH | rain 1hr in | rain 24hr in | rain mn in | humidity % | barometer mb |
| 20260507150043 | 56 | 0 | 2.0 | 9.0 | 0.00 | 0.00 | 0.00 | 48 | 1015.9 |
| 20260507145529 | 56 | 287 | 2.0 | 9.0 | 0.00 | 0.00 | 0.00 | 49 | 1015.9 |
| 20260507145026 | 55 | 287 | 0.0 | 8.0 | 0.00 | 0.00 | 0.00 | 48 | 1015.9 |
| 20260507144546 | 55 | 0 | 1.0 | 9.0 | 0.00 | 0.00 | 0.00 | 49 | 1016.0 |
| 20260507144026 | 55 | 287 | 2.0 | 9.0 | 0.00 | 0.00 | 0.00 | 49 | 1016.1 |
| 20260507143530 | 55 | 0 | 2.0 | 8.0 | 0.00 | 0.00 | 0.00 | 53 | 1016.2 |
| 20260507143045 | 55 | 0 | 1.0 | 9.0 | 0.00 | 0.00 | 0.00 | 52 | 1016.3 |
| 20260507142527 | 54 | 287 | 1.0 | 9.0 | 0.00 | 0.00 | 0.00 | 54 | 1016.3 |
| 20260507142026 | 54 | 287 | 2.0 | 9.0 | 0.00 | 0.00 | 0.00 | 52 | 1016.4 |
| 20260507141552 | 54 | 0 | 1.0 | 7.0 | 0.00 | 0.00 | 0.00 | 53 | 1016.4 |
| 20260507141030 | 53 | 0 | 0.0 | 7.0 | 0.00 | 0.00 | 0.00 | 54 | 1016.4 |
| 20260507140526 | 53 | 0 | 1.0 | 7.0 | 0.00 | 0.00 | 0.00 | 55 | 1016.4 |
| 20260507140104 | 52 | 0 | 0.0 | 6.0 | 0.00 | 0.00 | 0.00 | 56 | 1016.4 |
| 20260507135526 | 52 | 287 | 0.0 | 6.0 | 0.00 | 0.00 | 0.00 | 54 | 1016.5 |
| 20260507135026 | 52 | 0 | 1.0 | 6.0 | 0.00 | 0.00 | 0.00 | 56 | 1016.5 |
| 20260507134539 | 52 | 287 | 0.0 | 4.0 | 0.00 | 0.00 | 0.00 | 56 | 1016.5 |
| 20260507134025 | 51 | 0 | 1.0 | 6.0 | 0.00 | 0.00 | 0.00 | 56 | 1016.5 |
| 20260507133526 | 51 | 287 | 0.0 | 6.0 | 0.00 | 0.00 | 0.00 | 58 | 1016.6 |
| 20260507133038 | 51 | 0 | 0.0 | 6.0 | 0.00 | 0.00 | 0.00 | 59 | 1016.6 |
| 20260507132526 | 50 | 0 | 0.0 | 4.0 | 0.00 | 0.00 | 0.00 | 61 | 1016.6 |
| 20260507132026 | 50 | 0 | 0.0 | 3.0 | 0.00 | 0.00 | 0.00 | 60 | 1016.6 |
| 20260507131539 | 49 | 0 | 0.0 | 0.0 | 0.00 | 0.00 | 0.00 | 62 | 1016.6 |
| 20260507131026 | 49 | 0 | 0.0 | 0.0 | 0.00 | 0.00 | 0.00 | 62 | 1016.6 |
| 20260507130529 | 48 | 0 | 0.0 | 0.0 | 0.00 | 0.00 | 0.00 | 63 | 1016.7 |
| 20260507130049 | 48 | 0 | 0.0 | 0.0 | 0.00 | 0.00 | 0.00 | 66 | 1016.7 |
| 20260507125529 | 47 | 0 | 0.0 | 0.0 | 0.00 | 0.00 | 0.00 | 67 | 1016.6 |
| 20260507125026 | 46 | 0 | 0.0 | 0.0 | 0.00 | 0.00 | 0.00 | 70 | 1016.6 |
| 20260507124552 | 45 | 0 | 0.0 | 0.0 | 0.00 | 0.00 | 0.00 | 74 | 1016.7 |
| 20260507124027 | 44 | 0 | 0.0 | 0.0 | 0.00 | 0.00 | 0.00 | 76 | 1016.7 |
| 20260507123526 | 43 | 0 | 0.0 | 0.0 | 0.00 | 0.00 | 0.00 | 77 | 1016.7 |
| 20260507123052 | 43 | 0 | 0.0 | 0.0 | 0.00 | 0.00 | 0.00 | 79 | 1016.7 |
| 20260507122528 | 42 | 0 | 0.0 | 0.0 | 0.00 | 0.00 | 0.00 | 80 | 1016.6 |
| 20260507122026 | 41 | 0 | 0.0 | 0.0 | 0.00 | 0.00 | 0.00 | 82 | 1016.6 |
| 20260507121542 | 41 | 0 | 0.0 | 0.0 | 0.00 | 0.00 | 0.00 | 83 | 1016.6 |
| 20260507121026 | 40 | 0 | 0.0 | 0.0 | 0.00 | 0.00 | 0.00 | 83 | 1016.5 |
| 20260507120525 | 39 | 0 | 0.0 | 0.0 | 0.00 | 0.00 | 0.00 | 83 | 1016.5 |
| 20260507120040 | 39 | 0 | 0.0 | 0.0 | 0.00 | 0.00 | 0.00 | 83 | 1016.4 |
| 20260507115526 | 39 | 0 | 0.0 | 0.0 | 0.00 | 0.00 | 0.00 | 82 | 1016.4 |
| 20260507115025 | 39 | 0 | 0.0 | 0.0 | 0.00 | 0.00 | 0.00 | 81 | 1016.4 |
| 20260507114546 | 38 | 0 | 0.0 | 0.0 | 0.00 | 0.00 | 0.00 | 81 | 1016.2 |
| 20260507114027 | 38 | 0 | 0.0 | 0.0 | 0.00 | 0.00 | 0.00 | 80 | 1016.3 |
| 20260507113525 | 38 | 0 | 0.0 | 0.0 | 0.00 | 0.00 | 0.00 | 79 | 1016.3 |
| 20260507113042 | 38 | 0 | 0.0 | 0.0 | 0.00 | 0.00 | 0.00 | 78 | 1016.3 |
| 20260507112527 | 37 | 0 | 0.0 | 0.0 | 0.00 | 0.00 | 0.00 | 78 | 1016.3 |
| 20260507112027 | 37 | 0 | 0.0 | 0.0 | 0.00 | 0.00 | 0.00 | 79 | 1016.3 |
| 20260507111544 | 37 | 0 | 0.0 | 0.0 | 0.00 | 0.00 | 0.00 | 79 | 1016.3 |
| 20260507111025 | 37 | 0 | 0.0 | 0.0 | 0.00 | 0.00 | 0.00 | 79 | 1016.3 |
| 20260507110526 | 37 | 0 | 0.0 | 0.0 | 0.00 | 0.00 | 0.00 | 80 | 1016.2 |
| 20260507110047 | 37 | 0 | 0.0 | 0.0 | 0.00 | 0.00 | 0.00 | 80 | 1016.2 |
| 20260507105525 | 37 | 0 | 0.0 | 0.0 | 0.00 | 0.00 | 0.00 | 80 | 1016.1 |
| 20260507105025 | 37 | 0 | 0.0 | 0.0 | 0.00 | 0.00 | 0.00 | 80 | 1016.1 |
| 20260507104547 | 37 | 0 | 0.0 | 0.0 | 0.00 | 0.00 | 0.00 | 80 | 1016.1 |
| 20260507104027 | 37 | 0 | 0.0 | 0.0 | 0.00 | 0.00 | 0.00 | 79 | 1016.1 |
| 20260507103526 | 37 | 0 | 0.0 | 0.0 | 0.00 | 0.00 | 0.00 | 79 | 1016.1 |
| 20260507103043 | 37 | 0 | 0.0 | 0.0 | 0.00 | 0.00 | 0.00 | 79 | 1016.3 |
| 20260507102525 | 37 | 0 | 0.0 | 0.0 | 0.00 | 0.00 | 0.00 | 79 | 1016.2 |
| 20260507102026 | 37 | 0 | 0.0 | 0.0 | 0.00 | 0.00 | 0.00 | 79 | 1016.3 |
| 20260507101546 | 37 | 0 | 0.0 | 0.0 | 0.00 | 0.00 | 0.00 | 79 | 1016.3 |
| 20260507101025 | 38 | 0 | 0.0 | 0.0 | 0.00 | 0.00 | 0.00 | 79 | 1016.3 |
| 20260507100525 | 38 | 0 | 0.0 | 0.0 | 0.00 | 0.00 | 0.00 | 80 | 1016.4 |
| 20260507100038 | 38 | 0 | 0.0 | 0.0 | 0.00 | 0.00 | 0.00 | 80 | 1016.4 |
| 20260507095526 | 38 | 0 | 0.0 | 0.0 | 0.00 | 0.00 | 0.00 | 80 | 1016.4 |
| 20260507095026 | 38 | 0 | 0.0 | 0.0 | 0.00 | 0.00 | 0.00 | 80 | 1016.3 |
| 20260507094540 | 38 | 0 | 0.0 | 0.0 | 0.00 | 0.00 | 0.00 | 80 | 1016.4 |
| 20260507094026 | 38 | 0 | 0.0 | 0.0 | 0.00 | 0.00 | 0.00 | 79 | 1016.4 |
| 20260507093525 | 38 | 0 | 0.0 | 0.0 | 0.00 | 0.00 | 0.00 | 79 | 1016.5 |
| 20260507093040 | 38 | 0 | 0.0 | 0.0 | 0.00 | 0.00 | 0.00 | 80 | 1016.4 |
| 20260507092530 | 39 | 0 | 0.0 | 0.0 | 0.00 | 0.00 | 0.00 | 80 | 1016.4 |
| 20260507092025 | 39 | 0 | 0.0 | 0.0 | 0.00 | 0.00 | 0.00 | 80 | 1016.4 |
| 20260507091544 | 38 | 0 | 0.0 | 0.0 | 0.00 | 0.00 | 0.00 | 81 | 1016.4 |
| 20260507091026 | 38 | 0 | 0.0 | 0.0 | 0.00 | 0.00 | 0.00 | 80 | 1016.4 |
| 20260507090526 | 38 | 0 | 0.0 | 0.0 | 0.00 | 0.00 | 0.00 | 81 | 1016.5 |
| 20260507090043 | 38 | 0 | 0.0 | 0.0 | 0.00 | 0.00 | 0.00 | 81 | 1016.5 |
| 20260507085526 | 38 | 0 | 0.0 | 0.0 | 0.00 | 0.00 | 0.00 | 82 | 1016.7 |
| 20260507085026 | 38 | 0 | 0.0 | 0.0 | 0.00 | 0.00 | 0.00 | 82 | 1016.6 |
| 20260507084541 | 38 | 0 | 0.0 | 0.0 | 0.00 | 0.00 | 0.00 | 82 | 1016.6 |
| 20260507084035 | 38 | 0 | 0.0 | 0.0 | 0.00 | 0.00 | 0.00 | 82 | 1016.8 |
| 20260507083526 | 38 | 0 | 0.0 | 0.0 | 0.00 | 0.00 | 0.00 | 82 | 1016.7 |
| 20260507083047 | 38 | 0 | 0.0 | 0.0 | 0.00 | 0.00 | 0.00 | 82 | 1016.7 |
| 20260507082526 | 38 | 0 | 0.0 | 0.0 | 0.00 | 0.00 | 0.00 | 82 | 1016.6 |
| 20260507082025 | 38 | 0 | 0.0 | 0.0 | 0.00 | 0.00 | 0.00 | 82 | 1016.6 |
| 20260507081538 | 38 | 0 | 0.0 | 0.0 | 0.00 | 0.00 | 0.00 | 82 | 1016.6 |
| 20260507081025 | 37 | 0 | 0.0 | 0.0 | 0.00 | 0.00 | 0.00 | 81 | 1016.6 |
| 20260507080526 | 37 | 0 | 0.0 | 0.0 | 0.00 | 0.00 | 0.00 | 81 | 1016.6 |
| 20260507075526 | 37 | 0 | 0.0 | 0.0 | 0.00 | 0.00 | 0.00 | 81 | 1016.8 |
| 20260507075026 | 37 | 0 | 0.0 | 0.0 | 0.00 | 0.00 | 0.00 | 81 | 1016.7 |
| 20260507074545 | 37 | 0 | 0.0 | 0.0 | 0.00 | 0.00 | 0.00 | 82 | 1016.6 |
| 20260507074026 | 36 | 0 | 0.0 | 0.0 | 0.00 | 0.00 | 0.00 | 82 | 1016.8 |
| 20260507073526 | 36 | 0 | 0.0 | 0.0 | 0.00 | 0.00 | 0.00 | 81 | 1016.9 |
| 20260507073040 | 36 | 0 | 0.0 | 0.0 | 0.00 | 0.00 | 0.00 | 81 | 1016.9 |
| 20260507072526 | 36 | 0 | 0.0 | 0.0 | 0.00 | 0.00 | 0.00 | 81 | 1016.9 |
| 20260507072025 | 36 | 0 | 0.0 | 0.0 | 0.00 | 0.00 | 0.00 | 81 | 1017.0 |
| 20260507071554 | 36 | 0 | 0.0 | 0.0 | 0.00 | 0.00 | 0.00 | 80 | 1016.9 |
| 20260507071029 | 36 | 0 | 0.0 | 0.0 | 0.00 | 0.00 | 0.00 | 80 | 1017.0 |
| 20260507070525 | 36 | 0 | 0.0 | 0.0 | 0.00 | 0.00 | 0.00 | 80 | 1017.0 |
| 20260507070039 | 36 | 0 | 0.0 | 0.0 | 0.00 | 0.00 | 0.00 | 79 | 1017.1 |
| 20260507065525 | 36 | 0 | 0.0 | 0.0 | 0.00 | 0.00 | 0.00 | 79 | 1017.0 |
| 20260507065025 | 36 | 0 | 0.0 | 0.0 | 0.00 | 0.00 | 0.00 | 79 | 1017.0 |
| 20260507064546 | 36 | 0 | 0.0 | 0.0 | 0.00 | 0.00 | 0.00 | 78 | 1017.0 |
| 20260507064025 | 36 | 0 | 0.0 | 0.0 | 0.00 | 0.00 | 0.00 | 78 | 1017.1 |
| 20260507063525 | 36 | 0 | 0.0 | 0.0 | 0.00 | 0.00 | 0.00 | 78 | 1017.2 |
| 20260507063040 | 36 | 0 | 0.0 | 0.0 | 0.00 | 0.00 | 0.00 | 79 | 1017.1 |
| 20260507062526 | 36 | 0 | 0.0 | 0.0 | 0.00 | 0.00 | 0.00 | 78 | 1017.1 |
| 20260507062025 | 36 | 0 | 0.0 | 0.0 | 0.00 | 0.00 | 0.00 | 78 | 1017.2 |
| 20260507061538 | 36 | 0 | 0.0 | 0.0 | 0.00 | 0.00 | 0.00 | 78 | 1017.2 |
| 20260507061025 | 36 | 0 | 0.0 | 0.0 | 0.00 | 0.00 | 0.00 | 78 | 1017.1 |
| 20260507060525 | 36 | 0 | 0.0 | 0.0 | 0.00 | 0.00 | 0.00 | 77 | 1017.1 |
| 20260507060039 | 36 | 0 | 0.0 | 0.0 | 0.00 | 0.00 | 0.00 | 77 | 1017.1 |
| 20260507055526 | 37 | 0 | 0.0 | 0.0 | 0.00 | 0.00 | 0.00 | 77 | 1017.1 |
| 20260507055028 | 37 | 0 | 0.0 | 0.0 | 0.00 | 0.00 | 0.00 | 77 | 1017.1 |
| 20260507054546 | 37 | 0 | 0.0 | 0.0 | 0.00 | 0.00 | 0.00 | 77 | 1017.1 |
| 20260507054025 | 37 | 0 | 0.0 | 0.0 | 0.00 | 0.00 | 0.00 | 77 | 1017.2 |
| 20260507053526 | 37 | 0 | 0.0 | 0.0 | 0.00 | 0.00 | 0.00 | 76 | 1017.2 |
| 20260507053048 | 37 | 0 | 0.0 | 0.0 | 0.00 | 0.00 | 0.00 | 76 | 1017.2 |
| 20260507052525 | 37 | 0 | 0.0 | 0.0 | 0.00 | 0.00 | 0.00 | 76 | 1017.2 |
| 20260507052025 | 37 | 0 | 0.0 | 0.0 | 0.00 | 0.00 | 0.00 | 76 | 1017.2 |
| 20260507051540 | 37 | 0 | 0.0 | 0.0 | 0.00 | 0.00 | 0.00 | 76 | 1017.1 |
| 20260507051024 | 37 | 0 | 0.0 | 0.0 | 0.00 | 0.00 | 0.00 | 75 | 1017.1 |
| 20260507050524 | 38 | 0 | 0.0 | 0.0 | 0.00 | 0.00 | 0.00 | 75 | 1017.2 |
| 20260507050039 | 38 | 0 | 0.0 | 0.0 | 0.00 | 0.00 | 0.00 | 75 | 1017.1 |
| 20260507045525 | 38 | 0 | 0.0 | 0.0 | 0.00 | 0.00 | 0.00 | 74 | 1017.2 |
| 20260507045025 | 38 | 0 | 0.0 | 0.0 | 0.00 | 0.00 | 0.00 | 74 | 1017.1 |
| 20260507044539 | 38 | 0 | 0.0 | 0.0 | 0.00 | 0.00 | 0.00 | 74 | 1017.1 |
| 20260507044025 | 38 | 0 | 0.0 | 0.0 | 0.00 | 0.00 | 0.00 | 74 | 1017.1 |
| 20260507043525 | 39 | 0 | 0.0 | 0.0 | 0.00 | 0.00 | 0.00 | 73 | 1017.2 |
| 20260507043040 | 39 | 0 | 0.0 | 0.0 | 0.00 | 0.00 | 0.00 | 73 | 1017.2 |
| 20260507042525 | 39 | 0 | 0.0 | 0.0 | 0.00 | 0.00 | 0.00 | 72 | 1017.2 |
| 20260507042026 | 39 | 0 | 0.0 | 0.0 | 0.00 | 0.00 | 0.00 | 72 | 1017.1 |
| 20260507041539 | 39 | 0 | 0.0 | 0.0 | 0.00 | 0.00 | 0.00 | 71 | 1017.2 |
| 20260507041025 | 40 | 0 | 0.0 | 0.0 | 0.00 | 0.00 | 0.00 | 70 | 1017.1 |
| 20260507040526 | 40 | 0 | 0.0 | 0.0 | 0.00 | 0.00 | 0.00 | 70 | 1017.1 |
| 20260507040053 | 40 | 0 | 0.0 | 0.0 | 0.00 | 0.00 | 0.00 | 70 | 1017.1 |
| 20260507035526 | 40 | 0 | 0.0 | 0.0 | 0.00 | 0.00 | 0.00 | 70 | 1017.1 |
| 20260507035025 | 41 | 0 | 0.0 | 0.0 | 0.00 | 0.00 | 0.00 | 70 | 1017.2 |
| 20260507034540 | 41 | 0 | 0.0 | 0.0 | 0.00 | 0.00 | 0.00 | 70 | 1017.2 |
| 20260507034027 | 41 | 0 | 0.0 | 0.0 | 0.00 | 0.00 | 0.00 | 70 | 1017.2 |
| 20260507033530 | 42 | 0 | 0.0 | 0.0 | 0.00 | 0.00 | 0.00 | 70 | 1017.3 |
| 20260507033042 | 42 | 0 | 0.0 | 0.0 | 0.00 | 0.00 | 0.00 | 70 | 1017.3 |
| 20260507032526 | 42 | 0 | 0.0 | 0.0 | 0.00 | 0.00 | 0.00 | 68 | 1017.3 |
| 20260507032027 | 42 | 0 | 0.0 | 0.0 | 0.00 | 0.00 | 0.00 | 68 | 1017.4 |
| 20260507031538 | 42 | 0 | 0.0 | 0.0 | 0.00 | 0.00 | 0.00 | 68 | 1017.3 |
| 20260507031026 | 42 | 0 | 0.0 | 0.0 | 0.00 | 0.00 | 0.00 | 69 | 1017.3 |
| 20260507030526 | 43 | 0 | 0.0 | 0.0 | 0.00 | 0.00 | 0.00 | 69 | 1017.3 |
| 20260507030040 | 43 | 0 | 0.0 | 0.0 | 0.00 | 0.00 | 0.00 | 68 | 1017.2 |
| 20260507025525 | 43 | 0 | 0.0 | 0.0 | 0.00 | 0.00 | 0.00 | 67 | 1017.2 |
| 20260507025025 | 44 | 0 | 0.0 | 0.0 | 0.00 | 0.00 | 0.00 | 66 | 1017.2 |
| 20260507024536 | 44 | 0 | 0.0 | 0.0 | 0.00 | 0.00 | 0.00 | 64 | 1017.2 |
| 20260507024027 | 44 | 0 | 0.0 | 0.0 | 0.00 | 0.00 | 0.00 | 62 | 1017.2 |
| 20260507023525 | 44 | 0 | 0.0 | 0.0 | 0.00 | 0.00 | 0.00 | 62 | 1017.3 |
| 20260507023040 | 45 | 0 | 0.0 | 0.0 | 0.00 | 0.00 | 0.00 | 62 | 1017.2 |
| 20260507022529 | 45 | 0 | 0.0 | 0.0 | 0.00 | 0.00 | 0.00 | 63 | 1017.3 |
| 20260507022025 | 45 | 0 | 0.0 | 0.0 | 0.00 | 0.00 | 0.00 | 63 | 1017.2 |
| 20260507021541 | 45 | 0 | 0.0 | 0.0 | 0.00 | 0.00 | 0.00 | 62 | 1017.1 |
| 20260507021025 | 46 | 0 | 0.0 | 0.0 | 0.00 | 0.00 | 0.00 | 60 | 1017.0 |
| 20260507020525 | 46 | 0 | 0.0 | 0.0 | 0.00 | 0.00 | 0.00 | 59 | 1016.8 |
| 20260507020037 | 46 | 0 | 0.0 | 0.0 | 0.00 | 0.00 | 0.00 | 58 | 1016.8 |
| 20260507015528 | 46 | 0 | 0.0 | 0.0 | 0.00 | 0.00 | 0.00 | 58 | 1016.6 |
| 20260507015025 | 47 | 0 | 0.0 | 0.0 | 0.00 | 0.00 | 0.00 | 58 | 1016.6 |
| 20260507014552 | 47 | 0 | 0.0 | 0.0 | 0.00 | 0.00 | 0.00 | 57 | 1016.5 |
| 20260507014025 | 47 | 0 | 0.0 | 0.0 | 0.00 | 0.00 | 0.00 | 56 | 1016.4 |
| 20260507013524 | 47 | 0 | 0.0 | 0.0 | 0.00 | 0.00 | 0.00 | 57 | 1016.4 |
| 20260507013040 | 47 | 0 | 0.0 | 0.0 | 0.00 | 0.00 | 0.00 | 57 | 1016.3 |
| 20260507012526 | 48 | 0 | 0.0 | 0.0 | 0.00 | 0.00 | 0.00 | 57 | 1016.3 |
| 20260507012025 | 48 | 0 | 0.0 | 0.0 | 0.00 | 0.00 | 0.00 | 55 | 1016.3 |
| 20260507011541 | 49 | 0 | 0.0 | 1.0 | 0.00 | 0.00 | 0.00 | 54 | 1016.2 |
| 20260507011025 | 49 | 0 | 0.0 | 1.0 | 0.00 | 0.00 | 0.00 | 51 | 1016.1 |
| 20260507010525 | 49 | 0 | 0.0 | 1.0 | 0.00 | 0.00 | 0.00 | 52 | 1016.0 |
| 20260507010036 | 50 | 0 | 0.0 | 0.0 | 0.00 | 0.00 | 0.00 | 53 | 1015.9 |
| 20260507005527 | 50 | 0 | 0.0 | 0.0 | 0.00 | 0.00 | 0.00 | 52 | 1015.9 |
| 20260507005028 | 51 | 0 | 0.0 | 0.0 | 0.00 | 0.00 | 0.00 | 51 | 1015.9 |
| 20260507004540 | 51 | 0 | 0.0 | 0.0 | 0.00 | 0.00 | 0.00 | 51 | 1015.9 |
| 20260507004026 | 51 | 0 | 0.0 | 0.0 | 0.00 | 0.00 | 0.00 | 49 | 1015.8 |
| 20260507003524 | 52 | 0 | 0.0 | 0.0 | 0.00 | 0.00 | 0.00 | 48 | 1015.9 |
| 20260507003036 | 52 | 0 | 0.0 | 0.0 | 0.00 | 0.00 | 0.00 | 51 | 1015.9 |
| 20260507002525 | 52 | 0 | 0.0 | 0.0 | 0.00 | 0.00 | 0.00 | 49 | 1015.9 |
| 20260507002026 | 52 | 0 | 0.0 | 0.0 | 0.00 | 0.00 | 0.00 | 48 | 1015.8 |
| 20260507001549 | 53 | 0 | 0.0 | 0.0 | 0.00 | 0.00 | 0.00 | 48 | 1015.8 |
| 20260507001024 | 53 | 0 | 0.0 | 0.0 | 0.00 | 0.00 | 0.00 | 48 | 1015.8 |
| 20260507000528 | 53 | 0 | 0.0 | 0.0 | 0.00 | 0.00 | 0.00 | 49 | 1015.7 |
| 20260507000040 | 53 | 0 | 0.0 | 6.0 | 0.00 | 0.00 | 0.00 | 46 | 1015.8 |
| 20260506235526 | 54 | 0 | 0.0 | 6.0 | 0.00 | 0.00 | 0.00 | 47 | 1015.8 |
| 20260506235025 | 54 | 287 | 0.0 | 6.0 | 0.00 | 0.00 | 0.00 | 45 | 1015.9 |
| 20260506234543 | 54 | 0 | 0.0 | 8.0 | 0.00 | 0.00 | 0.00 | 46 | 1015.7 |
| 20260506234025 | 55 | 0 | 0.0 | 8.0 | 0.00 | 0.00 | 0.00 | 45 | 1015.7 |
| 20260506233525 | 55 | 0 | 0.0 | 6.0 | 0.00 | 0.00 | 0.00 | 44 | 1015.8 |
| 20260506233039 | 55 | 0 | 0.0 | 7.0 | 0.00 | 0.00 | 0.00 | 44 | 1015.8 |
| 20260506232525 | 55 | 287 | 0.0 | 7.0 | 0.00 | 0.00 | 0.00 | 45 | 1015.8 |
| 20260506232025 | 55 | 0 | 0.0 | 7.0 | 0.00 | 0.00 | 0.00 | 44 | 1015.9 |
| 20260506231540 | 55 | 0 | 1.0 | 6.0 | 0.00 | 0.00 | 0.00 | 42 | 1015.8 |
| 20260506231024 | 55 | 0 | 0.0 | 4.0 | 0.00 | 0.00 | 0.00 | 46 | 1015.6 |
| 20260506230525 | 55 | 0 | 0.0 | 3.0 | 0.00 | 0.00 | 0.00 | 44 | 1015.7 |
| 20260506230039 | 54 | 0 | 0.0 | 2.0 | 0.00 | 0.00 | 0.00 | 44 | 1015.7 |
| 20260506225525 | 55 | 0 | 0.0 | 3.0 | 0.00 | 0.00 | 0.00 | 43 | 1015.7 |
| 20260506225025 | 55 | 0 | 0.0 | 3.0 | 0.00 | 0.00 | 0.00 | 42 | 1015.9 |
| 20260506224537 | 55 | 0 | 0.0 | 3.0 | 0.00 | 0.00 | 0.00 | 42 | 1015.6 |
| 20260506224025 | 55 | 0 | 0.0 | 7.0 | 0.00 | 0.00 | 0.00 | 43 | 1015.6 |
| 20260506223526 | 56 | 0 | 0.0 | 7.0 | 0.00 | 0.00 | 0.00 | 41 | 1015.5 |
| 20260506223045 | 56 | 0 | 0.0 | 9.0 | 0.00 | 0.00 | 0.00 | 43 | 1015.4 |
| 20260506222525 | 57 | 0 | 0.0 | 9.0 | 0.00 | 0.00 | 0.00 | 42 | 1015.3 |
| 20260506222026 | 57 | 287 | 0.0 | 3.0 | 0.00 | 0.00 | 0.00 | 40 | 1015.3 |
| 20260506221535 | 58 | 0 | 0.0 | 3.0 | 0.00 | 0.00 | 0.00 | 40 | 1015.1 |
| 20260506221026 | 58 | 0 | 0.0 | 3.0 | 0.00 | 0.00 | 0.00 | 42 | 1015.1 |
| 20260506220525 | 58 | 287 | 0.0 | 3.0 | 0.00 | 0.00 | 0.00 | 42 | 1015.3 |
| 20260506220053 | 58 | 0 | 0.0 | 10.0 | 0.00 | 0.00 | 0.00 | 39 | 1015.2 |
| 20260506215524 | 59 | 0 | 1.0 | 10.0 | 0.00 | 0.00 | 0.00 | 41 | 1015.1 |
| 20260506215025 | 58 | 287 | 0.0 | 6.0 | 0.00 | 0.00 | 0.00 | 44 | 1015.3 |
| 20260506214539 | 58 | 0 | 0.0 | 10.0 | 0.00 | 0.00 | 0.00 | 42 | 1015.4 |
| 20260506214024 | 58 | 287 | 1.0 | 12.0 | 0.00 | 0.00 | 0.00 | 44 | 1015.3 |
| 20260506213528 | 58 | 0 | 2.0 | 12.0 | 0.00 | 0.00 | 0.00 | 43 | 1015.4 |
| 20260506213035 | 59 | 287 | 4.0 | 12.0 | 0.00 | 0.00 | 0.00 | 42 | 1015.4 |
| 20260506212529 | 59 | 287 | 1.0 | 9.0 | 0.00 | 0.00 | 0.00 | 42 | 1015.3 |
| 20260506212025 | 58 | 0 | 0.0 | 9.0 | 0.00 | 0.00 | 0.00 | 40 | 1015.4 |
| 20260506211537 | 57 | 0 | 0.0 | 10.0 | 0.00 | 0.00 | 0.00 | 42 | 1015.5 |
| 20260506211025 | 57 | 287 | 2.0 | 10.0 | 0.00 | 0.00 | 0.00 | 45 | 1015.3 |
| 20260506210527 | 57 | 0 | 0.0 | 10.0 | 0.00 | 0.00 | 0.00 | 42 | 1015.4 |
| 20260506210042 | 57 | 0 | 0.0 | 10.0 | 0.00 | 0.00 | 0.00 | 42 | 1015.5 |
| 20260506205525 | 58 | 287 | 2.0 | 10.0 | 0.00 | 0.01 | 0.00 | 41 | 1015.4 |
| 20260506205028 | 57 | 287 | 0.0 | 8.0 | 0.00 | 0.01 | 0.00 | 49 | 1015.5 |
| 20260506204541 | 57 | 0 | 0.0 | 7.0 | 0.00 | 0.01 | 0.00 | 42 | 1015.4 |
| 20260506204027 | 57 | 0 | 0.0 | 8.0 | 0.00 | 0.01 | 0.00 | 43 | 1015.5 |
| 20260506203525 | 57 | 0 | 1.0 | 6.0 | 0.00 | 0.01 | 0.00 | 46 | 1015.5 |
| 20260506203113 | 57 | 0 | 0.0 | 8.0 | 0.00 | 0.01 | 0.00 | 42 | 1015.6 |
| 20260506202527 | 57 | 0 | 0.0 | 9.0 | 0.00 | 0.01 | 0.00 | 42 | 1015.7 |
| 20260506202025 | 58 | 287 | 2.0 | 9.0 | 0.00 | 0.01 | 0.00 | 44 | 1015.7 |
| 20260506201540 | 58 | 287 | 0.0 | 6.0 | 0.00 | 0.01 | 0.00 | 46 | 1015.7 |
| 20260506201024 | 59 | 0 | 0.0 | 4.0 | 0.00 | 0.01 | 0.00 | 41 | 1015.8 |
| 20260506200524 | 58 | 0 | 0.0 | 8.0 | 0.00 | 0.01 | 0.00 | 47 | 1015.8 |
| 20260506200046 | 58 | 0 | 0.0 | 8.0 | 0.00 | 0.01 | 0.00 | 42 | 1015.7 |
| 20260506195525 | 58 | 0 | 0.0 | 7.0 | 0.00 | 0.02 | 0.00 | 41 | 1015.6 |
| 20260506195025 | 58 | 0 | 1.0 | 12.0 | 0.00 | 0.02 | 0.00 | 49 | 1015.6 |
| 20260506194537 | 57 | 0 | 0.0 | 12.0 | 0.00 | 0.02 | 0.00 | 46 | 1015.6 |
| 20260506194025 | 57 | 287 | 1.0 | 11.0 | 0.00 | 0.02 | 0.00 | 46 | 1015.7 |
| 20260506193524 | 58 | 287 | 0.0 | 11.0 | 0.00 | 0.02 | 0.00 | 46 | 1015.8 |
| 20260506193039 | 57 | 287 | 2.0 | 9.0 | 0.00 | 0.02 | 0.00 | 52 | 1015.9 |
| 20260506192524 | 57 | 0 | 0.0 | 8.0 | 0.00 | 0.02 | 0.00 | 44 | 1015.9 |
| 20260506192025 | 57 | 287 | 0.0 | 4.0 | 0.00 | 0.02 | 0.00 | 46 | 1016.0 |
| 20260506191539 | 57 | 0 | 0.0 | 7.0 | 0.00 | 0.02 | 0.00 | 49 | 1015.9 |
| 20260506191025 | 56 | 0 | 0.0 | 7.0 | 0.00 | 0.02 | 0.00 | 50 | 1016.0 |
| 20260506190524 | 56 | 0 | 0.0 | 7.0 | 0.00 | 0.02 | 0.00 | 49 | 1016.0 |
| 20260506190046 | 56 | 0 | 0.0 | 3.0 | 0.00 | 0.02 | 0.00 | 46 | 1015.8 |
| 20260506185525 | 56 | 0 | 0.0 | 3.0 | 0.00 | 0.02 | 0.00 | 47 | 1016.0 |
| 20260506185025 | 57 | 0 | 0.0 | 8.0 | 0.00 | 0.02 | 0.00 | 45 | 1016.0 |
| 20260506184553 | 58 | 0 | 0.0 | 8.0 | 0.00 | 0.02 | 0.00 | 48 | 1015.8 |
| 20260506184027 | 57 | 0 | 0.0 | 7.0 | 0.00 | 0.02 | 0.00 | 47 | 1015.8 |
| 20260506183525 | 56 | 0 | 0.0 | 7.0 | 0.00 | 0.02 | 0.00 | 47 | 1015.8 |
| 20260506183037 | 56 | 0 | 0.0 | 0.0 | 0.00 | 0.02 | 0.00 | 47 | 1015.7 |
| 20260506182524 | 57 | 0 | 0.0 | 7.0 | 0.00 | 0.02 | 0.00 | 43 | 1015.7 |
| 20260506182028 | 58 | 0 | 0.0 | 7.0 | 0.00 | 0.02 | 0.00 | 41 | 1015.8 |
| 20260506181539 | 56 | 0 | 0.0 | 6.0 | 0.00 | 0.02 | 0.00 | 48 | 1015.7 |
| 20260506181023 | 57 | 0 | 0.0 | 4.0 | 0.00 | 0.02 | 0.00 | 47 | 1015.7 |
| 20260506180523 | 57 | 0 | 0.0 | 4.0 | 0.00 | 0.02 | 0.00 | 47 | 1015.9 |
| 20260506180038 | 58 | 0 | 0.0 | 6.0 | 0.00 | 0.02 | 0.00 | 46 | 1016.0 |
| 20260506175523 | 58 | 0 | 0.0 | 8.0 | 0.00 | 0.02 | 0.00 | 46 | 1015.9 |
| 20260506175026 | 58 | 0 | 0.0 | 8.0 | 0.00 | 0.02 | 0.00 | 46 | 1015.9 |
| 20260506174535 | 58 | 0 | 0.0 | 7.0 | 0.00 | 0.02 | 0.00 | 46 | 1016.0 |
| 20260506174026 | 58 | 287 | 0.0 | 7.0 | 0.00 | 0.02 | 0.00 | 52 | 1016.0 |
| 20260506173522 | 57 | 0 | 0.0 | 7.0 | 0.00 | 0.02 | 0.00 | 47 | 1016.0 |
| 20260506173052 | 57 | 0 | 0.0 | 4.0 | 0.00 | 0.02 | 0.00 | 50 | 1016.0 |
| 20260506172522 | 57 | 0 | 0.0 | 4.0 | 0.00 | 0.02 | 0.00 | 52 | 1016.1 |
| 20260506172025 | 57 | 0 | 0.0 | 4.0 | 0.00 | 0.02 | 0.00 | 54 | 1016.2 |
| 20260506171540 | 56 | 0 | 0.0 | 0.0 | 0.00 | 0.02 | 0.00 | 52 | 1016.2 |
| 20260506171025 | 55 | 0 | 0.0 | 0.0 | 0.00 | 0.02 | 0.00 | 47 | 1016.4 |
| 20260506170528 | 55 | 0 | 0.0 | 0.0 | 0.00 | 0.02 | 0.00 | 52 | 1016.5 |
| 20260506170040 | 55 | 0 | 0.0 | 3.0 | 0.00 | 0.02 | 0.00 | 49 | 1016.3 |
| 20260506165523 | 54 | 0 | 0.0 | 3.0 | 0.00 | 0.02 | 0.00 | 52 | 1016.5 |
| 20260506165025 | 54 | 0 | 0.0 | 3.0 | 0.00 | 0.02 | 0.00 | 51 | 1016.4 |
| 20260506164545 | 53 | 0 | 0.0 | 2.0 | 0.00 | 0.02 | 0.00 | 52 | 1016.3 |
| 20260506164022 | 53 | 0 | 0.0 | 0.0 | 0.00 | 0.02 | 0.00 | 52 | 1016.3 |
| 20260506163522 | 53 | 0 | 0.0 | 0.0 | 0.00 | 0.02 | 0.00 | 52 | 1016.3 |
| 20260506163055 | 53 | 0 | 0.0 | 0.0 | 0.00 | 0.02 | 0.00 | 51 | 1016.3 |
| 20260506162523 | 52 | 0 | 0.0 | 0.0 | 0.00 | 0.02 | 0.00 | 53 | 1016.1 |
| 20260506162023 | 52 | 0 | 0.0 | 0.0 | 0.00 | 0.02 | 0.00 | 53 | 1016.0 |
| 20260506161537 | 52 | 0 | 0.0 | 0.0 | 0.00 | 0.02 | 0.00 | 56 | 1016.0 |
| 20260506161022 | 52 | 0 | 0.0 | 0.0 | 0.00 | 0.02 | 0.00 | 58 | 1016.0 |
| 20260506160525 | 52 | 0 | 0.0 | 0.0 | 0.00 | 0.02 | 0.00 | 58 | 1016.0 |
| 20260506160043 | 51 | 0 | 0.0 | 0.0 | 0.00 | 0.02 | 0.00 | 60 | 1015.9 |
| 20260506155525 | 51 | 0 | 0.0 | 0.0 | 0.00 | 0.02 | 0.00 | 62 | 1015.8 |
| 20260506155025 | 51 | 0 | 0.0 | 0.0 | 0.00 | 0.02 | 0.00 | 62 | 1015.8 |
| 20260506154547 | 51 | 0 | 0.0 | 0.0 | 0.00 | 0.02 | 0.00 | 62 | 1015.8 |
| 20260506154025 | 50 | 0 | 0.0 | 0.0 | 0.00 | 0.02 | 0.00 | 64 | 1015.7 |
| 20260506153524 | 50 | 0 | 0.0 | 0.0 | 0.00 | 0.02 | 0.00 | 65 | 1015.5 |
| 20260506153038 | 49 | 0 | 0.0 | 0.0 | 0.00 | 0.02 | 0.00 | 63 | 1015.5 |
| 20260506152522 | 49 | 0 | 0.0 | 0.0 | 0.00 | 0.02 | 0.00 | 67 | 1015.4 |
| 20260506152023 | 49 | 0 | 0.0 | 0.0 | 0.00 | 0.02 | 0.00 | 66 | 1015.3 |
| 20260506151540 | 49 | 0 | 0.0 | 0.0 | 0.00 | 0.02 | 0.00 | 67 | 1015.4 |
| 20260506151022 | 49 | 0 | 0.0 | 0.0 | 0.00 | 0.02 | 0.00 | 67 | 1015.3 |
| 20260506150522 | 48 | 0 | 0.0 | 0.0 | 0.00 | 0.02 | 0.00 | 69 | 1015.4 |